Wind_Speed
8 7 10 14 19 20 15 17 12 23 18 12 8 6 5 8 11 9 6 6 9 12 10 17 22 23 12 19 24 23 13 10 11 9 4 3 3 1 9 14 18 20 21 22
6 11 10 8 20 21 19 14 10 14 19 8 6 11 13 12 13 9 8 9 13 12 16 18 21 9 15 17 20 11 5 8 7 7 3 4 5 12 16 15 17 18 21 20
15 4 5 7 13 4 6 14 13 8 4 15 18 18 13 12 5 6 11 13 12 11 15 18 10 10 17 19 17 8 1 2 8 9 4 10 15 9 13 15 17 18 21 23
4 3 4 8 14 21 16 9 7 8 14 15 13 14 15 11 4 12 16 11 7 14 17 9 12 18 21 19 7 5 8 8 1 6 10 3 7 11 14 13 18 23 24 21
2 3 8 9 9 3 11 17 4 8 19 16 14 15 9 2 5 12 12 8 16 16 9 13 21 19 16 13 10 8 8 5 7 7 7 9 11 10 14 19 22 21 16 24
1 4 7 8 3 6 7 11 5 14 8 15 9 10 10 5 11 13 14 17 10 7 11 15 14 10 12 15 3 13 13 14 12 12 12 10 11 14 17 16 20 21 24 12
2 5 7 7 5 1 4 9 6 3 8 11 8 6 11 13 9 12 7 11 12 14 11 7 8 11 10 15 17 13 11 10 10 10 11 12 15 14 18 18 21 14 18 24
3 4 8 2 3 3 6 4 7 4 3 13 13 7 11 10 9 6 8 12 15 13 9 8 8 8 16 15 9 10 10 9 9 12 14 14 13 17 18 18 13 17 21 23
8 6 5 10 12 10 15 18 8 5 7 7 14 11 8 6 6 6 9 11 10 8 10 8 4 6 9 5 7 11 12 12 14 15 14 11 14 18 17 13 15 20 18 19
7 9 16 14 20 19 14 7 8 5 8 10 11 9 7 6 6 6 11 12 8 5 5 5 3 4 5 4 10 12 13 14 14 11 14 15 15 15 11 16 18 18 17 18
13 19 19 16 11 11 11 5 5 6 8 9 4 5 4 5 5 8 10 10 9 7 9 2 6 4 5 7 10 12 13 12 12 14 14 16 14 14 16 19 17 19 19 18
16 19 14 20 9 6 5 6 10 9 6 6 6 2 5 7 9 10 12 10 10 9 7 6 4 3 4 8 11 12 12 13 12 13 14 15 15 17 17 16 16 18 17 15
14 12 17 12 9 14 12 7 12 9 3 1 3 3 4 4 10 8 7 11 5 8 3 2 3 6 8 7 11 11 11 12 12 13 12 15 16 19 20 15 19 20 16 17
20 18 8 5 4 4 7 5 10 10 4 6 8 7 8 8 5 5 8 3 3 6 2 1 1 2 4 5 9 12 13 15 14 6 13 14 18 15 17 15 19 21 17 20
4 3 2 3 10 9 7 5 6 5 3 5 2 5 8 9 9 9 6 4 6 8 2 3 6 8 7 7 9 11 15 16 6 7 12 13 12 13 14 15 18 17 15 20
9 8 8 7 10 8 6 7 5 4 5 7 5 7 9 9 9 9 6 6 8 9 11 12 14 10 7 9 8 9 10 10 8 12 13 11 10 13 13 13 17 15 12 16
6 2 7 5 5 6 5 4 3 4 5 8 7 9 9 8 7 7 10 9 10 12 13 15 17 10 8 8 8 12 10 8 14 14 13 10 12 12 11 11 14 13 12 15
6 9 8 8 9 6 7 8 9 7 7 11 10 8 8 5 5 9 10 12 12 12 11 11 9 7 7 8 10 12 9 8 13 13 10 10 11 10 10 10 11 12 11 14
10 7 13 16 16 7 8 9 10 12 14 11 5 8 7 8 5 7 9 11 11 10 11 14 10 9 8 8 10 9 7 6 11 9 10 11 10 10 8 8 8 10 11 12
11 16 19 18 23 18 14 15 13 14 14 6 8 8 8 3 4 6 8 9 7 9 12 14 13 13 14 10 7 6 6 9 9 7 9 9 10 10 7 7 7 9 10 11
8 14 17 16 16 15 14 17 15 14 10 10 9 8 6 3 2 5 5 5 5 9 10 11 12 13 14 7 5 5 5 10 6 7 8 7 8 9 7 7 6 7 9 9
10 11 16 18 14 17 17 20 15 15 10 11 9 6 4 6 2 3 5 2 7 9 10 11 11 11 11 9 6 5 8 10 8 6 5 6 5 6 6 6 6 7 7 8
17 19 19 17 12 15 17 17 16 13 12 11 8 7 6 7 3 3 3 4 8 8 9 10 11 11 11 7 5 6 9 10 7 5 5 4 4 5 4 5 4 5 6 6
21 23 21 17 13 15 12 14 12 13 14 10 9 7 6 4 1 1 5 9 8 8 10 11 11 12 10 4 5 8 9 10 8 6 5 4 2 2 2 2 3 4 5 5
25 25 23 14 10 12 16 15 11 14 13 11 8 7 3 3 3 6 8 8 8 8 10 10 9 9 11 7 8 9 9 10 8 5 4 3 2 2 1 1 2 3 3 3
21 17 19 13 14 17 15 12 13 16 15 12 11 9 6 5 4 5 7 5 6 8 10 10 10 9 9 10 9 9 10 9 9 8 5 4 4 3 2 1 1 2 1 2
22 20 14 16 16 19 15 14 12 11 14 13 9 7 5 2 3 5 6 7 6 8 10 11 10 11 11 10 8 8 9 9 8 8 7 6 5 5 5 3 3 1 1 3
Wind_Direction
257 278 291 290 290 286 292 287 288 292 289 298 335 62 46 18 1 3 45 12 341 325 320 324 326 323 353 348 347 331 230 178 126 110 90 43 339 39 303 279 288 289 294 296
273 278 276 293 281 286 286 277 274 297 302 301 0 21 10 2 3 8 353 335 327 315 317 317 314 328 330 334 326 332 80 97 80 65 47 52 306 279 276 289 298 305 307 306
278 330 11 310 273 266 266 308 291 281 304 13 353 347 348 342 358 332 321 313 313 311 309 309 328 333 328 321 316 305 50 350 343 351 332 243 242 263 296 303 312 312 313 313
275 28 228 240 315 303 293 278 327 22 0 353 352 341 324 334 335 323 313 300 298 307 305 334 332 327 324 320 330 30 328 310 256 245 247 234 319 308 312 317 317 316 313 310
269 212 276 288 264 302 318 309 358 355 338 330 327 312 314 289 303 283 285 280 294 312 329 336 331 331 320 309 291 283 287 300 93 82 26 350 334 325 322 322 320 314 314 315
283 271 292 228 316 322 312 281 342 358 7 318 305 306 312 301 293 290 278 290 311 335 336 344 338 319 313 329 326 87 59 40 20 8 354 346 340 332 327 324 322 319 318 332
236 263 266 257 257 58 44 291 288 220 277 279 279 255 296 288 286 300 327 26 0 340 335 338 17 10 23 67 63 49 28 10 355 347 350 346 335 335 329 327 322 337 340 333
223 237 269 226 344 51 255 268 288 270 262 300 296 298 285 296 290 24 39 10 357 338 342 31 6 341 90 67 38 8 360 356 355 344 340 336 334 333 331 329 351 350 341 329
195 223 246 316 301 304 305 299 289 258 329 355 317 303 298 312 33 55 20 356 348 2 32 4 58 64 26 32 1 355 348 349 342 336 335 341 341 334 333 357 4 348 333 319
317 266 285 308 301 294 291 269 334 30 329 325 275 287 340 18 39 12 350 334 332 351 14 349 141 97 90 16 348 348 345 342 338 341 340 342 342 345 8 4 352 343 328 316
262 281 288 278 271 294 321 29 2 333 286 270 295 42 14 3 12 345 325 315 310 331 307 175 120 67 3 348 345 341 336 336 334 339 341 340 350 359 351 343 343 338 331 328
266 272 275 281 330 317 341 343 261 261 285 62 85 37 353 358 332 313 306 349 344 339 92 104 88 46 329 318 330 336 334 327 332 336 346 343 344 339 345 341 340 344 342 347
260 272 286 313 322 357 321 309 6 18 21 290 78 25 5 310 294 302 321 284 12 15 121 132 7 334 294 302 320 324 324 330 326 318 331 341 335 332 326 352 353 357 351 353
272 283 305 26 309 271 245 268 298 317 53 20 343 316 309 300 337 324 305 333 326 309 275 242 332 295 317 290 304 322 315 305 302 303 339 340 335 340 349 358 348 351 359 359
311 121 6 38 360 335 330 339 341 294 314 346 9 315 299 301 295 314 268 261 329 322 326 290 292 299 313 312 312 322 328 334 302 340 342 343 349 358 1 359 360 355 358 4
60 29 22 12 350 325 326 326 337 327 338 318 291 278 283 295 308 320 322 325 334 310 305 303 299 308 319 325 330 330 349 1 359 348 346 343 354 354 4 5 10 3 14 10
54 306 248 304 300 293 303 343 301 277 294 299 273 292 293 304 323 340 331 329 320 311 316 313 312 317 314 330 337 331 337 338 337 340 352 360 1 5 12 15 14 14 26 23
57 21 335 313 316 324 324 332 305 244 247 277 282 294 295 307 300 317 329 329 331 341 23 18 356 332 329 334 333 329 335 330 347 349 355 358 5 12 15 22 20 23 28 29
32 356 334 327 324 311 306 320 323 308 298 289 280 276 294 298 318 335 347 350 0 1 353 352 341 344 351 335 331 337 345 337 348 356 0 2 11 8 16 21 33 31 37 35
359 341 320 306 310 311 301 312 308 293 292 267 273 287 284 303 357 8 7 12 26 11 348 341 345 338 336 307 305 340 320 344 349 353 356 359 12 15 29 37 48 42 45 45
314 305 293 300 310 315 300 305 303 282 259 265 268 273 273 328 341 332 328 9 0 350 346 346 344 346 344 324 311 322 322 343 340 349 354 15 20 29 36 41 61 57 47 55
279 276 287 295 297 298 296 293 286 262 251 261 262 253 280 311 338 1 4 353 346 339 341 343 342 341 340 332 344 333 333 336 335 329 336 354 12 26 28 34 73 63 58 53
281 278 281 279 280 298 303 301 285 255 241 261 245 248 254 277 292 331 337 333 335 332 338 344 345 344 332 338 348 334 335 330 309 303 310 336 354 14 24 41 66 64 58 64
278 276 275 272 288 294 288 293 275 228 240 255 243 240 252 287 359 325 333 315 323 326 332 333 334 343 341 343 331 330 329 327 315 298 288 320 294 355 9 70 79 57 67 84
283 276 278 258 283 278 277 290 237 226 242 242 236 236 221 235 276 298 309 316 320 331 329 334 335 342 351 337 319 319 318 322 307 293 297 283 281 323 314 52 57 110 92 73
283 284 271 257 277 294 276 256 222 230 228 227 221 203 205 239 270 307 328 347 340 329 330 337 345 332 333 343 326 310 315 318 309 304 313 264 274 278 257 295 160 176 48 57
289 287 252 259 287 289 270 236 222 226 223 199 166 196 224 241 287 311 326 329 335 330 329 331 332 333 325 311 322 321 308 311 306 293 293 266 255 252 250 232 225 222 92 136
Height
855 852 849 848 842 833 838 837 842 818 817 801 797 795 796 795 791 789 792 791 789 785 780 777 775 773 769 766 762 758 755 755 755 756 756 757 758 760 762 762 761 760 758 756
860 849 849 852 838 830 831 827 820 812 808 793 793 796 794 795 791 793 791 788 786 782 778 775 772 769 766 764 762 761 757 756 755 756 757 756 759 759 758 758 757 756 753 751
852 854 859 866 830 826 822 816 814 822 812 806 803 801 799 797 795 794 791 787 782 779 776 771 769 767 764 761 758 755 754 754 752 752 754 755 754 756 755 754 753 751 749 747
861 875 854 830 813 811 815 810 808 808 807 805 805 799 797 789 793 790 786 782 778 774 772 770 767 765 762 759 756 754 754 752 751 751 753 754 753 753 752 750 749 747 744 742
857 858 840 828 813 812 815 810 808 806 800 800 802 798 793 786 788 785 779 777 773 771 770 766 764 762 759 757 755 752 753 752 752 751 751 751 751 751 750 748 745 743 741 738
874 868 844 822 807 804 801 809 806 806 807 807 803 802 789 785 781 776 774 771 770 767 765 762 761 760 758 755 752 755 755 754 754 752 752 751 750 749 747 745 742 740 737 734
889 857 839 811 802 801 825 812 804 804 802 800 799 795 785 779 771 768 769 769 768 767 763 760 759 759 758 757 758 757 756 755 754 753 752 749 748 747 745 742 739 736 734 731
862 844 842 800 802 821 811 802 797 796 794 793 787 784 780 774 769 768 768 766 765 763 761 760 760 758 759 759 760 759 757 755 754 752 750 748 746 744 742 739 736 733 730 727
843 829 802 799 804 799 798 794 793 791 787 786 788 782 776 774 772 772 771 767 764 762 761 762 760 759 759 760 759 758 756 754 753 751 749 747 744 742 738 736 734 731 728 723
830 804 795 799 794 793 788 788 787 787 789 788 782 779 776 776 774 774 773 768 764 762 761 761 759 759 759 758 757 756 755 754 752 750 747 745 742 740 737 735 732 729 725 721
814 804 799 794 792 789 787 787 785 784 781 777 778 778 778 772 771 773 773 768 765 761 760 759 759 760 760 758 757 756 754 753 750 748 746 743 741 739 737 735 732 728 724 719
807 796 798 788 788 788 786 787 785 781 774 775 776 778 776 770 770 771 769 767 764 760 760 760 759 760 759 757 756 754 753 750 749 747 744 742 739 737 736 733 730 727 723 718
796 789 787 787 785 785 786 780 778 781 780 773 770 773 772 770 768 768 768 764 760 759 758 758 758 757 756 755 754 752 750 748 746 744 742 739 737 735 732 730 728 724 721 717
786 784 785 787 787 784 782 778 775 775 775 771 769 770 770 768 766 766 765 761 758 758 757 756 755 755 755 754 752 750 747 745 743 742 741 738 736 734 732 729 725 722 719 716
781 782 785 785 784 782 778 774 776 777 773 767 767 769 768 766 765 762 759 758 757 756 755 754 753 753 752 751 750 748 745 742 740 741 739 737 735 733 730 728 725 722 718 715
782 785 783 783 784 784 779 776 774 774 772 770 768 768 767 765 763 760 759 757 755 754 753 752 751 751 750 749 747 746 744 742 741 739 737 735 734 732 729 727 724 722 720 717
789 790 788 784 781 779 776 775 773 771 770 770 768 767 765 763 760 759 757 756 754 753 752 750 749 749 748 747 746 744 742 741 740 738 736 734 733 730 729 727 725 723 721 719
781 783 784 783 779 777 775 772 770 769 767 766 766 765 764 761 759 757 756 754 753 751 751 749 748 747 746 746 745 743 741 740 739 737 736 734 732 730 728 727 725 723 721 720
781 783 782 779 777 776 774 771 769 768 766 763 763 762 761 760 758 756 755 754 752 751 751 750 748 746 745 744 743 741 740 739 738 737 735 734 732 730 728 727 725 724 722 721
780 780 779 777 775 774 771 768 767 765 763 762 761 760 759 758 756 755 755 754 753 753 751 750 748 745 744 742 741 740 739 738 737 736 735 733 731 730 728 727 726 724 723 721
779 777 776 774 772 770 768 765 763 761 760 760 759 758 757 755 755 755 754 754 753 753 751 749 747 744 742 740 740 739 738 738 736 735 734 733 732 730 729 728 726 725 724 723
776 774 771 769 768 765 763 760 758 756 756 756 756 756 755 754 753 753 753 753 753 751 750 748 745 743 742 740 739 738 738 737 736 735 734 732 731 730 729 728 727 726 725 724
771 768 766 764 763 761 758 756 754 753 753 753 753 754 753 753 753 752 752 752 751 750 748 746 745 743 740 738 738 737 736 735 734 734 733 732 731 730 729 728 727 726 725 724
765 761 759 757 756 755 752 749 748 749 749 750 751 751 751 751 751 751 751 750 749 748 747 745 743 741 738 738 737 736 735 734 733 732 731 731 730 730 729 728 727 727 726 725
757 753 751 751 750 750 747 745 745 746 746 747 748 749 749 750 750 750 749 748 747 746 745 743 741 739 738 736 736 735 734 733 732 731 730 730 729 729 729 728 728 727 727 726
751 748 746 745 744 744 742 741 741 742 743 744 745 746 747 748 748 748 747 746 745 744 744 742 739 738 736 735 734 733 732 731 730 729 729 729 728 728 728 728 727 727 727 726
744 742 740 738 736 736 736 736 737 737 738 740 742 744 745 746 746 746 745 744 743 743 742 740 738 736 734 733 732 730 729 729 728 728 727 727 727 727 727 727 727 727 727 727